Geostationary
NORAD ID: 28912
Int'l Code: 2005-049B
Perigee: 35,787.9 km
Apogee: 35,796.5 km
Inclination: 0.5 °
Period: 1,436.0 minutes
Semi major axis: 42163 km
Launch date: December 21, 2005
Source: European Organization for the Exploitation of Mete (EUME)
Two Line Element Set (TLE):
1 28912U 05049B 13140.97893970 .00000067 00000-0 00000+0 0 5528
2 28912 000.4936 033.3515 0001019 006.4915 200.7914 01.00277133 27222
Source:
NASA's NSSDC Master Catalog entry for METEOSAT 9 (MSG 2)